FDX67 KEWR-KOAK

Flight info

Callsign FDX67
Flight time 5h 23m
Altitude 34000
Route NEWEL J60 DJB FWA KG63M STRUK Q42 LEWRP/N0472F360 KK60G KK60E KP60C KD60Y BRAFF Q126 DRRSI DTA TATOO RPARK OAKES3
Aircraft MD11/H-SDE1E2E3FGHIJ2J3J4J5M1RWXY/LB1D1

Departure

Time 2026-04-23 12:02
Airport Newark Liberty International Airport (KEWR)

Arrival

Time 2026-04-23 17:25
Airport San Francisco Bay Oakland International Airport (KOAK)
Time Latitude Longitude Altitude Speed Heading
2026-04-23 11:43 40.67956 -74.18080 16 ft 0 kts 117°
2026-04-23 11:54 40.67958 -74.18085 16 ft 2 kts 117°
2026-04-23 11:54 40.67965 -74.18102 16 ft 2 kts 128°
2026-04-23 11:54 40.67976 -74.18115 16 ft 2 kts 154°
2026-04-23 11:55 40.67990 -74.18121 16 ft 2 kts 175°
2026-04-23 11:55 40.68005 -74.18120 16 ft 2 kts 197°
2026-04-23 11:55 40.68013 -74.18116 16 ft 1 kts 206°
2026-04-23 11:55 40.68014 -74.18115 16 ft 0 kts 206°
2026-04-23 11:59 40.67982 -74.18136 16 ft 12 kts 206°
2026-04-23 11:59 40.67872 -74.18205 16 ft 19 kts 206°
2026-04-23 11:59 40.67757 -74.18265 16 ft 13 kts 172°
2026-04-23 11:59 40.67694 -74.18171 16 ft 14 kts 122°
2026-04-23 12:00 40.67619 -74.18080 17 ft 15 kts 136°
2026-04-23 12:00 40.67570 -74.17960 17 ft 15 kts 76°
2026-04-23 12:00 40.67629 -74.17893 17 ft 9 kts 23°
2026-04-23 12:00 40.67643 -74.17884 17 ft 0 kts 26°
2026-04-23 12:01 40.67863 -74.17743 16 ft 73 kts 26°
2026-04-23 12:01 40.68539 -74.17313 16 ft 140 kts 25°
2026-04-23 12:01 40.69577 -74.16650 71 ft 184 kts 26°
2026-04-23 12:02 40.70703 -74.15929 653 ft 181 kts 24°
2026-04-23 12:02 40.71849 -74.15183 1241 ft 187 kts 24°
2026-04-23 12:02 40.73047 -74.14560 1859 ft 189 kts
2026-04-23 12:02 40.74330 -74.15009 2160 ft 203 kts 321°
2026-04-23 12:03 40.75172 -74.16609 2473 ft 229 kts 296°
2026-04-23 12:03 40.75612 -74.18653 3155 ft 240 kts 283°
2026-04-23 12:03 40.75790 -74.20887 3910 ft 251 kts 280°
2026-04-23 12:03 40.76011 -74.23154 4973 ft 251 kts 283°
2026-04-23 12:04 40.76312 -74.25418 5962 ft 253 kts 285°
2026-04-23 12:04 40.76655 -74.27636 6971 ft 253 kts 286°
2026-04-23 12:04 40.77028 -74.29896 8009 ft 254 kts 286°
2026-04-23 12:04 40.77409 -74.32139 9000 ft 255 kts 287°
2026-04-23 12:05 40.77800 -74.34390 9964 ft 256 kts 287°
2026-04-23 12:05 40.78205 -74.36721 10535 ft 274 kts 287°
2026-04-23 12:05 40.78663 -74.39294 10723 ft 304 kts 286°
2026-04-23 12:05 40.79165 -74.42159 10888 ft 334 kts 286°
2026-04-23 12:06 40.79697 -74.45213 11451 ft 349 kts 286°
2026-04-23 12:06 40.80247 -74.48361 12265 ft 356 kts 286°
2026-04-23 12:06 40.81371 -74.54796 13958 ft 367 kts 286°
2026-04-23 12:07 40.81949 -74.58086 14802 ft 371 kts 287°
2026-04-23 12:07 40.82538 -74.61423 15667 ft 374 kts 287°
2026-04-23 12:07 40.83126 -74.64751 16441 ft 378 kts 287°
2026-04-23 12:07 40.83730 -74.68143 17228 ft 382 kts 287°
2026-04-23 12:08 40.84345 -74.71609 17868 ft 386 kts 287°
2026-04-23 12:08 40.84960 -74.75055 18623 ft 389 kts 287°
2026-04-23 12:08 40.85577 -74.78526 19313 ft 394 kts 287°
2026-04-23 12:08 40.86204 -74.82038 20036 ft 397 kts 287°
2026-04-23 12:09 40.86839 -74.85601 20769 ft 399 kts 287°
2026-04-23 12:09 40.87480 -74.89181 21420 ft 403 kts 288°
2026-04-23 12:09 40.88130 -74.92797 22069 ft 407 kts 288°
2026-04-23 12:09 40.88787 -74.96445 22721 ft 410 kts 288°
2026-04-23 12:10 40.89448 -75.00113 23327 ft 414 kts 288°
2026-04-23 12:10 40.90115 -75.03822 23949 ft 417 kts 288°
2026-04-23 12:10 40.90780 -75.07516 24555 ft 420 kts 288°
2026-04-23 12:10 40.91451 -75.11355 25061 ft 426 kts 286°
2026-04-23 12:11 40.91715 -75.15305 25555 ft 440 kts 276°
2026-04-23 12:11 40.91490 -75.19347 26133 ft 450 kts 269°
2026-04-23 12:11 40.90825 -75.23428 26685 ft 461 kts 262°
2026-04-23 12:11 40.89848 -75.27512 27215 ft 467 kts 260°
2026-04-23 12:12 40.88836 -75.31619 27718 ft 471 kts 261°
2026-04-23 12:12 40.87842 -75.35733 28248 ft 473 kts 261°
2026-04-23 12:12 40.86866 -75.39806 29068 ft 469 kts 261°
2026-04-23 12:12 40.85877 -75.43903 29689 ft 470 kts 261°
2026-04-23 12:13 40.84858 -75.48055 30299 ft 469 kts 261°
2026-04-23 12:13 40.83861 -75.52122 30948 ft 468 kts 261°
2026-04-23 12:13 40.82866 -75.56227 31592 ft 465 kts 261°
2026-04-23 12:13 40.81884 -75.60284 32261 ft 462 kts 261°
2026-04-23 12:14 40.80904 -75.64340 32893 ft 459 kts 261°
2026-04-23 12:14 40.79946 -75.68305 33396 ft 457 kts 261°
2026-04-23 12:14 40.78987 -75.72285 33886 ft 456 kts 261°
2026-04-23 12:14 40.78029 -75.76266 33951 ft 458 kts 261°
2026-04-23 12:15 40.76104 -75.84280 33970 ft 456 kts 261°
2026-04-23 12:15 40.74203 -75.92203 33980 ft 455 kts 261°
2026-04-23 12:16 40.72298 -76.00175 33986 ft 455 kts 261°
2026-04-23 12:16 40.70401 -76.08139 33988 ft 455 kts 261°
2026-04-23 12:17 40.68516 -76.16081 33989 ft 455 kts 261°
2026-04-23 12:17 40.67226 -76.24101 33990 ft 441 kts 275°
2026-04-23 12:18 40.67734 -76.32044 34000 ft 429 kts 288°
2026-04-23 12:18 40.68884 -76.39700 33992 ft 428 kts 288°
2026-04-23 12:19 40.70002 -76.47401 33998 ft 428 kts 287°
2026-04-23 12:19 40.71111 -76.55149 33986 ft 429 kts 287°
2026-04-23 12:20 40.72209 -76.62852 33989 ft 429 kts 287°
2026-04-23 12:20 40.73314 -76.70549 33993 ft 429 kts 287°
2026-04-23 12:21 40.74421 -76.78248 33991 ft 429 kts 287°
2026-04-23 12:21 40.75540 -76.85982 33990 ft 429 kts 287°
2026-04-23 12:22 40.76662 -76.93686 33984 ft 429 kts 287°
2026-04-23 12:22 40.77784 -77.01367 33985 ft 428 kts 287°
2026-04-23 12:23 40.78917 -77.09086 33990 ft 428 kts 287°
2026-04-23 12:23 40.80053 -77.16808 33991 ft 429 kts 287°
2026-04-23 12:24 40.81199 -77.24538 33998 ft 430 kts 287°
2026-04-23 12:24 40.82353 -77.32285 33988 ft 430 kts 287°
2026-04-23 12:25 40.83505 -77.40005 33985 ft 430 kts 287°
2026-04-23 12:25 40.84584 -77.47768 33995 ft 430 kts 287°
2026-04-23 12:26 40.85641 -77.55514 33997 ft 431 kts 287°
2026-04-23 12:26 40.86724 -77.63335 33998 ft 432 kts 287°
2026-04-23 12:27 40.87805 -77.71123 33996 ft 432 kts 286°
2026-04-23 12:27 40.88857 -77.78945 34007 ft 433 kts 286°
2026-04-23 12:28 40.89914 -77.86748 34006 ft 432 kts 286°
2026-04-23 12:28 40.90977 -77.94560 34011 ft 431 kts 286°
2026-04-23 12:29 40.92028 -78.02361 34018 ft 433 kts 285°
2026-04-23 12:29 40.92968 -78.10226 34005 ft 433 kts 285°
2026-04-23 12:30 40.93913 -78.18043 34002 ft 434 kts 285°
2026-04-23 12:30 40.94883 -78.25958 33999 ft 435 kts 285°
2026-04-23 12:31 40.95855 -78.33819 34003 ft 436 kts 285°
2026-04-23 12:31 40.96841 -78.41730 34001 ft 436 kts 285°
2026-04-23 12:32 40.97758 -78.49676 34004 ft 436 kts 284°
2026-04-23 12:32 40.98630 -78.57594 34004 ft 437 kts 285°
2026-04-23 12:33 40.99519 -78.65505 34012 ft 437 kts 284°
2026-04-23 12:33 41.00422 -78.73441 34000 ft 438 kts 284°
2026-04-23 12:34 41.01338 -78.81460 34001 ft 439 kts 284°
2026-04-23 12:34 41.02251 -78.89420 34006 ft 439 kts 285°
2026-04-23 12:35 41.03169 -78.97361 34004 ft 440 kts 285°
2026-04-23 12:35 41.04106 -79.05388 34011 ft 439 kts 285°
2026-04-23 12:36 41.05041 -79.13376 34017 ft 440 kts 284°
2026-04-23 12:36 41.05972 -79.21325 34009 ft 441 kts 285°
2026-04-23 12:37 41.06926 -79.29369 34011 ft 440 kts 285°
2026-04-23 12:37 41.07877 -79.37353 34017 ft 440 kts 285°
2026-04-23 12:38 41.08835 -79.45361 34017 ft 440 kts 285°
2026-04-23 12:38 41.09793 -79.53348 34013 ft 441 kts 284°
2026-04-23 12:39 41.10642 -79.61443 34006 ft 444 kts 284°
2026-04-23 12:39 41.11492 -79.69517 34016 ft 443 kts 283°
2026-04-23 12:40 41.12356 -79.77608 34015 ft 443 kts 283°
2026-04-23 12:40 41.13224 -79.85649 34012 ft 443 kts 283°
2026-04-23 12:41 41.14101 -79.93703 34021 ft 443 kts 283°
2026-04-23 12:41 41.14984 -80.01775 34019 ft 444 kts 283°
2026-04-23 12:42 41.15877 -80.09897 34014 ft 444 kts 283°
2026-04-23 12:42 41.16766 -80.17952 34012 ft 444 kts 283°
2026-04-23 12:43 41.17595 -80.26065 34018 ft 446 kts 283°
2026-04-23 12:43 41.18438 -80.34214 34022 ft 446 kts 283°
2026-04-23 12:44 41.19289 -80.42332 34035 ft 445 kts 283°
2026-04-23 12:44 41.20058 -80.50483 34035 ft 446 kts 282°
2026-04-23 12:45 41.20815 -80.58625 34027 ft 447 kts 282°
2026-04-23 12:45 41.21589 -80.66794 34025 ft 448 kts 282°
2026-04-23 12:46 41.22372 -80.74989 34029 ft 448 kts 282°
2026-04-23 12:46 41.23160 -80.83132 34032 ft 447 kts 282°
2026-04-23 12:47 41.23957 -80.91334 34032 ft 447 kts 282°
2026-04-23 12:47 41.24756 -80.99487 34028 ft 448 kts 282°
2026-04-23 12:48 41.25563 -81.07681 34029 ft 448 kts 282°
2026-04-23 12:48 41.26371 -81.15835 34029 ft 448 kts 282°
2026-04-23 12:49 41.27193 -81.24050 34027 ft 447 kts 282°
2026-04-23 12:49 41.28014 -81.32183 34032 ft 447 kts 282°
2026-04-23 12:50 41.28839 -81.40334 34028 ft 448 kts 282°
2026-04-23 12:50 41.29677 -81.48531 34023 ft 448 kts 282°
2026-04-23 12:51 41.30479 -81.56709 34021 ft 448 kts 281°
2026-04-23 12:51 41.31195 -81.64906 34019 ft 448 kts 281°
2026-04-23 12:52 41.31910 -81.73131 34014 ft 449 kts 280°
2026-04-23 12:52 41.32643 -81.81405 34019 ft 449 kts 280°
2026-04-23 12:53 41.33376 -81.89593 34024 ft 448 kts 281°
2026-04-23 12:53 41.34117 -81.97787 34023 ft 448 kts 281°
2026-04-23 12:54 41.34868 -82.06028 34019 ft 449 kts 281°
2026-04-23 12:54 41.35456 -82.14275 34022 ft 452 kts 275°
2026-04-23 12:55 41.35079 -82.22634 34034 ft 458 kts 266°
2026-04-23 12:55 41.34072 -82.31023 34023 ft 457 kts 265°
2026-04-23 12:56 41.33060 -82.39327 34017 ft 457 kts 265°
2026-04-23 12:56 41.32061 -82.47632 34009 ft 457 kts 265°
2026-04-23 12:57 41.31063 -82.55985 34007 ft 457 kts 265°
2026-04-23 12:57 41.30071 -82.64316 34008 ft 458 kts 265°
2026-04-23 12:58 41.29084 -82.72655 34009 ft 458 kts 265°
2026-04-23 12:58 41.28103 -82.80986 34001 ft 458 kts 265°
2026-04-23 12:59 41.27126 -82.89345 33993 ft 457 kts 265°
2026-04-23 12:59 41.26162 -82.97635 33984 ft 457 kts 265°
2026-04-23 13:00 41.25202 -83.05949 33976 ft 456 kts 265°
2026-04-23 13:00 41.24244 -83.14300 33986 ft 456 kts 265°
2026-04-23 13:01 41.23299 -83.22582 33992 ft 457 kts 265°
2026-04-23 13:01 41.22351 -83.30954 33987 ft 457 kts 265°
2026-04-23 13:02 41.21323 -83.39258 33985 ft 459 kts 263°
2026-04-23 13:02 41.20198 -83.47603 33976 ft 459 kts 264°
2026-04-23 13:03 41.19110 -83.55878 33979 ft 457 kts 264°
2026-04-23 13:03 41.18037 -83.64171 33983 ft 457 kts 264°
2026-04-23 13:04 41.16965 -83.72481 33986 ft 459 kts 263°
2026-04-23 13:04 41.15895 -83.80817 33993 ft 459 kts 263°
2026-04-23 13:05 41.14832 -83.89143 33991 ft 459 kts 263°
2026-04-23 13:05 41.13781 -83.97417 33991 ft 458 kts 263°
2026-04-23 13:06 41.12205 -84.09916 33987 ft 458 kts 264°
2026-04-23 13:07 41.11171 -84.18182 33978 ft 458 kts 264°
2026-04-23 13:07 41.10133 -84.26514 33992 ft 458 kts 264°
2026-04-23 13:08 41.09107 -84.34811 33984 ft 458 kts 264°
2026-04-23 13:08 41.08086 -84.43092 33982 ft 458 kts 264°
2026-04-23 13:09 41.06933 -84.51380 33975 ft 459 kts 263°
2026-04-23 13:09 41.05770 -84.59705 33977 ft 459 kts 263°
2026-04-23 13:10 41.04633 -84.67999 33982 ft 458 kts 263°
2026-04-23 13:10 41.03509 -84.76269 33985 ft 459 kts 263°
2026-04-23 13:11 41.02387 -84.84553 33987 ft 459 kts 263°
2026-04-23 13:11 41.01265 -84.92871 33991 ft 459 kts 263°
2026-04-23 13:12 41.00153 -85.01162 33994 ft 458 kts 263°
2026-04-23 13:12 40.99048 -85.09446 33999 ft 457 kts 263°
2026-04-23 13:13 40.97967 -85.17709 33999 ft 457 kts 263°
2026-04-23 13:13 40.96757 -85.25948 34004 ft 458 kts 261°
2026-04-23 13:14 40.95381 -85.34158 33997 ft 458 kts 261°
2026-04-23 13:14 40.94018 -85.42330 33994 ft 458 kts 261°
2026-04-23 13:15 40.92659 -85.50551 33998 ft 458 kts 261°
2026-04-23 13:15 40.91311 -85.58725 33996 ft 457 kts 261°
2026-04-23 13:16 40.89961 -85.66949 33995 ft 457 kts 260°
2026-04-23 13:16 40.88626 -85.75091 33986 ft 457 kts 260°
2026-04-23 13:17 40.87291 -85.83290 33985 ft 456 kts 261°
2026-04-23 13:17 40.85966 -85.91453 33985 ft 456 kts 261°
2026-04-23 13:18 40.84644 -85.99638 33991 ft 456 kts 261°
2026-04-23 13:18 40.83326 -86.07838 33985 ft 456 kts 261°
2026-04-23 13:19 40.82027 -86.15952 33983 ft 455 kts 261°
2026-04-23 13:19 40.80720 -86.24148 33989 ft 455 kts 261°
2026-04-23 13:20 40.79433 -86.32241 33985 ft 454 kts 260°
2026-04-23 13:20 40.77992 -86.40343 33981 ft 455 kts 259°
2026-04-23 13:21 40.76542 -86.48444 33972 ft 454 kts 259°
2026-04-23 13:21 40.75110 -86.56561 33975 ft 454 kts 259°
2026-04-23 13:22 40.73689 -86.64677 33981 ft 454 kts 259°
2026-04-23 13:22 40.72273 -86.72784 33980 ft 454 kts 259°
2026-04-23 13:23 40.70863 -86.80901 33979 ft 454 kts 259°
2026-04-23 13:23 40.69465 -86.88961 33985 ft 454 kts 259°
2026-04-23 13:24 40.68065 -86.97077 33974 ft 454 kts 259°
2026-04-23 13:24 40.66680 -87.05142 33973 ft 454 kts 259°
2026-04-23 13:25 40.65296 -87.13219 33977 ft 454 kts 259°
2026-04-23 13:25 40.63910 -87.21356 33967 ft 454 kts 259°
2026-04-23 13:26 40.62542 -87.29414 33955 ft 453 kts 259°
2026-04-23 13:26 40.61177 -87.37488 33948 ft 452 kts 259°
2026-04-23 13:27 40.59726 -87.45548 33955 ft 452 kts 258°
2026-04-23 13:27 40.58253 -87.53510 33959 ft 452 kts 258°
2026-04-23 13:28 40.56794 -87.61521 33949 ft 452 kts 258°
2026-04-23 13:28 40.55335 -87.69577 33951 ft 452 kts 258°
2026-04-23 13:29 40.53896 -87.77559 33957 ft 452 kts 258°
2026-04-23 13:29 40.52449 -87.85614 33954 ft 453 kts 258°
2026-04-23 13:30 40.51018 -87.93608 33952 ft 452 kts 258°
2026-04-23 13:30 40.49795 -88.01677 33950 ft 451 kts 262°
2026-04-23 13:31 40.48893 -88.09806 33946 ft 450 kts 262°
2026-04-23 13:31 40.47987 -88.17902 33955 ft 450 kts 262°
2026-04-23 13:32 40.47066 -88.26030 33955 ft 449 kts 262°
2026-04-23 13:32 40.46153 -88.34119 33947 ft 449 kts 262°
2026-04-23 13:33 40.45245 -88.42187 33939 ft 449 kts 262°
2026-04-23 13:33 40.44342 -88.50254 33947 ft 449 kts 262°
2026-04-23 13:34 40.43444 -88.58331 33952 ft 449 kts 262°
2026-04-23 13:34 40.42547 -88.66443 33945 ft 449 kts 262°
2026-04-23 13:35 40.41665 -88.74490 33942 ft 448 kts 262°
2026-04-23 13:35 40.40780 -88.82587 33942 ft 447 kts 262°
2026-04-23 13:36 40.39905 -88.90653 33946 ft 447 kts 262°
2026-04-23 13:36 40.39037 -88.98731 33944 ft 446 kts 262°
2026-04-23 13:37 40.38177 -89.06765 33939 ft 446 kts 262°
2026-04-23 13:37 40.37322 -89.14761 33939 ft 446 kts 261°
2026-04-23 13:38 40.36312 -89.22824 33931 ft 447 kts 260°
2026-04-23 13:38 40.35303 -89.30823 33924 ft 447 kts 261°
2026-04-23 13:39 40.34315 -89.38827 33918 ft 447 kts 261°
2026-04-23 13:39 40.33328 -89.46886 33912 ft 446 kts 261°
2026-04-23 13:40 40.32354 -89.54894 33913 ft 446 kts 261°
2026-04-23 13:40 40.31380 -89.62929 33913 ft 446 kts 261°
2026-04-23 13:41 40.30412 -89.70964 33908 ft 446 kts 260°
2026-04-23 13:41 40.29454 -89.78953 33897 ft 446 kts 260°
2026-04-23 13:42 40.28499 -89.86967 33895 ft 447 kts 260°
2026-04-23 13:42 40.27551 -89.94975 33889 ft 447 kts 260°
2026-04-23 13:43 40.26603 -90.03028 33888 ft 446 kts 260°
2026-04-23 13:43 40.25668 -90.11005 33896 ft 446 kts 260°
2026-04-23 13:44 40.24730 -90.19079 33898 ft 446 kts 260°
2026-04-23 13:44 40.23814 -90.27090 33901 ft 446 kts 262°
2026-04-23 13:45 40.23331 -90.33820 33899 ft 448 kts 265°
2026-04-23 13:45 40.22935 -90.43293 33896 ft 449 kts 265°
2026-04-23 13:46 40.22594 -90.51442 33897 ft 449 kts 265°
2026-04-23 13:46 40.22252 -90.59569 33891 ft 449 kts 266°
2026-04-23 13:47 40.21910 -90.67743 33886 ft 448 kts 265°
2026-04-23 13:47 40.21576 -90.75840 33886 ft 449 kts 265°
2026-04-23 13:48 40.21247 -90.84001 33879 ft 449 kts 265°
2026-04-23 13:48 40.20922 -90.92168 33876 ft 450 kts 265°
2026-04-23 13:49 40.20602 -91.00334 33863 ft 450 kts 265°
2026-04-23 13:49 40.20288 -91.08537 33859 ft 450 kts 265°
2026-04-23 13:50 40.19981 -91.16675 33855 ft 451 kts 266°
2026-04-23 13:50 40.19679 -91.24847 33847 ft 451 kts 266°
2026-04-23 13:51 40.19382 -91.33046 33850 ft 450 kts 266°
2026-04-23 13:51 40.19093 -91.41203 33848 ft 450 kts 266°
2026-04-23 13:52 40.18793 -91.49326 33846 ft 450 kts 265°
2026-04-23 13:52 40.18342 -91.57471 33839 ft 450 kts 265°
2026-04-23 13:53 40.17903 -91.65614 33835 ft 450 kts 264°
2026-04-23 13:53 40.17485 -91.73756 33836 ft 450 kts 264°
2026-04-23 13:54 40.17075 -91.81876 33832 ft 451 kts 265°
2026-04-23 13:54 40.16669 -91.90034 33834 ft 451 kts 265°
2026-04-23 13:55 40.16268 -91.98202 33835 ft 451 kts 265°
2026-04-23 13:55 40.15872 -92.06357 33841 ft 451 kts 265°
2026-04-23 13:56 40.15482 -92.14524 33841 ft 450 kts 265°
2026-04-23 13:56 40.15095 -92.22692 33821 ft 450 kts 265°
2026-04-23 13:57 40.14718 -92.30810 33821 ft 451 kts 265°
2026-04-23 13:57 40.14345 -92.39002 33829 ft 451 kts 265°
2026-04-23 13:58 40.13976 -92.47176 33825 ft 453 kts 265°
2026-04-23 13:58 40.13613 -92.55352 33819 ft 453 kts 265°
2026-04-23 13:59 40.13105 -92.63557 33815 ft 454 kts 262°
2026-04-23 13:59 40.12283 -92.71728 33812 ft 454 kts 261°
2026-04-23 14:00 40.11611 -92.78562 33799 ft 454 kts 262°
2026-04-23 14:00 40.10680 -92.88096 33787 ft 455 kts 262°
2026-04-23 14:01 40.09887 -92.96232 33785 ft 454 kts 262°
2026-04-23 14:01 40.09095 -93.04373 33778 ft 454 kts 262°
2026-04-23 14:02 40.08305 -93.12547 33768 ft 455 kts 262°
2026-04-23 14:02 40.07516 -93.20771 33766 ft 456 kts 262°
2026-04-23 14:03 40.06736 -93.28970 33772 ft 456 kts 262°
2026-04-23 14:03 40.05963 -93.37147 33778 ft 456 kts 262°
2026-04-23 14:04 40.05190 -93.45384 33780 ft 456 kts 262°
2026-04-23 14:04 40.04434 -93.53520 33775 ft 456 kts 262°
2026-04-23 14:05 40.03673 -93.61763 33769 ft 455 kts 262°
2026-04-23 14:05 40.02924 -93.69920 33756 ft 455 kts 262°
2026-04-23 14:06 40.02141 -93.78091 33751 ft 455 kts 261°
2026-04-23 14:06 40.01292 -93.86287 33744 ft 455 kts 261°
2026-04-23 14:07 40.00474 -93.94436 33748 ft 456 kts 262°
2026-04-23 14:07 40.00027 -94.06804 33728 ft 459 kts 268°
2026-04-23 14:08 40.00042 -94.15077 33721 ft 458 kts 268°
2026-04-23 14:08 40.00049 -94.23373 33728 ft 458 kts 268°
2026-04-23 14:09 40.00054 -94.31648 33714 ft 457 kts 268°
2026-04-23 14:09 40.00061 -94.39887 33710 ft 457 kts 268°
2026-04-23 14:10 40.00076 -94.48119 33722 ft 456 kts 268°
2026-04-23 14:10 40.00097 -94.56412 33698 ft 456 kts 268°
2026-04-23 14:11 40.00124 -94.64637 33683 ft 457 kts 268°
2026-04-23 14:11 40.00155 -94.72923 33697 ft 456 kts 268°
2026-04-23 14:12 40.00194 -94.81114 33695 ft 455 kts 268°
2026-04-23 14:12 40.00238 -94.89347 33693 ft 455 kts 268°
2026-04-23 14:13 40.00287 -94.97598 33693 ft 454 kts 268°
2026-04-23 14:13 40.00344 -95.05802 33693 ft 454 kts 268°
2026-04-23 14:14 40.00404 -95.13992 33684 ft 455 kts 267°
2026-04-23 14:14 40.00391 -95.22214 33680 ft 454 kts 266°
2026-04-23 14:15 40.00305 -95.30487 33672 ft 455 kts 266°
2026-04-23 14:15 40.00240 -95.38696 33658 ft 454 kts 266°
2026-04-23 14:16 40.00191 -95.46958 33662 ft 453 kts 266°
2026-04-23 14:16 40.00147 -95.55126 33668 ft 453 kts 266°
2026-04-23 14:17 40.00108 -95.63223 33665 ft 452 kts 267°
2026-04-23 14:17 40.00075 -95.71421 33655 ft 451 kts 266°
2026-04-23 14:18 40.00046 -95.79602 33652 ft 451 kts 266°
2026-04-23 14:18 40.00022 -95.87781 33657 ft 452 kts 266°
2026-04-23 14:19 40.00006 -95.95961 33659 ft 451 kts 266°
2026-04-23 14:19 39.99996 -96.04105 33651 ft 451 kts 266°
2026-04-23 14:20 39.99997 -96.12251 33644 ft 451 kts 266°
2026-04-23 14:20 40.00004 -96.20419 33645 ft 449 kts 266°
2026-04-23 14:21 40.00014 -96.28530 33627 ft 447 kts 266°
2026-04-23 14:21 40.00031 -96.36623 33627 ft 447 kts 267°
2026-04-23 14:22 40.00053 -96.44659 33632 ft 446 kts 267°
2026-04-23 14:22 40.00080 -96.52760 33634 ft 447 kts 267°
2026-04-23 14:23 40.00115 -96.60865 33622 ft 447 kts 267°
2026-04-23 14:23 40.00153 -96.68977 33621 ft 447 kts 266°
2026-04-23 14:24 40.00199 -96.77052 33624 ft 446 kts 267°
2026-04-23 14:24 40.00248 -96.85143 33618 ft 446 kts 267°
2026-04-23 14:25 40.00303 -96.93150 33611 ft 445 kts 267°
2026-04-23 14:25 40.00366 -97.01228 33610 ft 444 kts 267°
2026-04-23 14:26 40.00432 -97.09258 33600 ft 444 kts 267°
2026-04-23 14:26 40.00371 -97.17321 33598 ft 444 kts 266°
2026-04-23 14:27 40.00295 -97.25318 33606 ft 443 kts 266°
2026-04-23 14:27 40.00237 -97.33348 33604 ft 444 kts 266°
2026-04-23 14:28 40.00190 -97.41383 33602 ft 444 kts 266°
2026-04-23 14:28 40.00147 -97.49423 33612 ft 443 kts 266°
2026-04-23 14:29 40.00109 -97.57450 33613 ft 443 kts 266°
2026-04-23 14:29 40.00077 -97.65459 33614 ft 443 kts 266°
2026-04-23 14:30 40.00051 -97.73434 33606 ft 442 kts 265°
2026-04-23 14:30 40.00027 -97.81473 33600 ft 441 kts 265°
2026-04-23 14:31 40.00012 -97.89440 33601 ft 441 kts 266°
2026-04-23 14:31 40.00004 -97.97472 33591 ft 442 kts 265°
2026-04-23 14:32 40.00028 -98.05434 33585 ft 442 kts 266°
2026-04-23 14:32 40.00105 -98.13428 33587 ft 442 kts 266°
2026-04-23 14:33 40.00178 -98.21433 33588 ft 441 kts 266°
2026-04-23 14:33 40.00255 -98.29399 33595 ft 440 kts 266°
2026-04-23 14:34 40.00336 -98.37343 33598 ft 439 kts 266°
2026-04-23 14:34 40.00421 -98.45281 33608 ft 438 kts 266°
2026-04-23 14:35 40.00514 -98.53167 33621 ft 436 kts 266°
2026-04-23 14:35 40.00609 -98.61066 33628 ft 435 kts 266°
2026-04-23 14:36 40.00712 -98.68935 33633 ft 435 kts 266°
2026-04-23 14:36 40.00819 -98.76826 33627 ft 435 kts 266°
2026-04-23 14:37 40.00931 -98.84660 33629 ft 434 kts 266°
2026-04-23 14:37 40.01047 -98.92486 33629 ft 432 kts 266°
2026-04-23 14:38 40.01171 -99.00314 33634 ft 433 kts 266°
2026-04-23 14:38 40.01298 -99.08147 33639 ft 432 kts 266°
2026-04-23 14:39 40.01315 -99.15945 33637 ft 430 kts 264°
2026-04-23 14:39 40.01289 -99.23718 33632 ft 429 kts 265°
2026-04-23 14:40 40.01279 -99.31483 33637 ft 428 kts 265°
2026-04-23 14:40 40.01284 -99.39238 33637 ft 428 kts 265°
2026-04-23 14:41 40.01293 -99.46931 33645 ft 428 kts 265°
2026-04-23 14:41 40.01306 -99.54720 33663 ft 428 kts 265°
2026-04-23 14:42 40.01325 -99.62487 33670 ft 429 kts 265°
2026-04-23 14:42 40.01346 -99.70236 33671 ft 429 kts 264°
2026-04-23 14:43 40.01376 -99.77982 33669 ft 427 kts 265°
2026-04-23 14:43 40.01410 -99.85712 33674 ft 427 kts 265°
2026-04-23 14:44 40.01447 -99.93436 33670 ft 427 kts 265°
2026-04-23 14:44 40.01492 -100.01214 33674 ft 427 kts 265°
2026-04-23 14:45 40.01539 -100.08939 33684 ft 427 kts 265°
2026-04-23 14:45 40.01595 -100.16663 33688 ft 426 kts 265°
2026-04-23 14:46 40.01540 -100.24343 33692 ft 425 kts 264°
2026-04-23 14:46 40.01443 -100.32024 33699 ft 425 kts 264°
2026-04-23 14:47 40.01362 -100.39718 33709 ft 425 kts 264°
2026-04-23 14:47 40.01292 -100.47404 33718 ft 425 kts 264°
2026-04-23 14:48 40.01229 -100.55057 33720 ft 425 kts 264°
2026-04-23 14:48 40.01172 -100.62746 33717 ft 424 kts 264°
2026-04-23 14:49 40.01116 -100.70459 33718 ft 424 kts 264°
2026-04-23 14:49 40.01069 -100.78111 33730 ft 424 kts 264°
2026-04-23 14:50 40.01024 -100.85819 33724 ft 423 kts 264°
2026-04-23 14:50 40.00986 -100.93487 33737 ft 424 kts 264°
2026-04-23 14:51 40.00952 -101.01137 33730 ft 423 kts 264°
2026-04-23 14:51 40.00923 -101.08809 33744 ft 423 kts 264°
2026-04-23 14:52 40.00898 -101.16432 33737 ft 422 kts 264°
2026-04-23 14:52 40.00879 -101.24089 33739 ft 422 kts 264°
2026-04-23 14:53 40.00796 -101.31718 33745 ft 420 kts 263°
2026-04-23 14:53 40.00653 -101.39323 33741 ft 420 kts 263°
2026-04-23 14:54 40.00530 -101.46938 33751 ft 419 kts 263°
2026-04-23 14:54 40.00416 -101.54495 33745 ft 418 kts 263°
2026-04-23 14:55 40.00306 -101.62038 33755 ft 418 kts 263°
2026-04-23 14:55 40.00205 -101.69594 33751 ft 417 kts 263°
2026-04-23 14:56 40.00106 -101.77116 33747 ft 415 kts 263°
2026-04-23 14:56 40.00014 -101.84642 33752 ft 415 kts 263°
2026-04-23 14:57 39.99922 -101.92181 33755 ft 414 kts 263°
2026-04-23 14:57 40.00010 -101.99640 33756 ft 416 kts 267°
2026-04-23 14:58 40.00461 -102.07175 33757 ft 417 kts 268°
2026-04-23 14:58 40.00936 -102.14708 33754 ft 417 kts 268°
2026-04-23 14:59 40.01401 -102.22250 33760 ft 419 kts 268°
2026-04-23 14:59 40.01866 -102.29792 33765 ft 419 kts 268°
2026-04-23 15:00 40.02337 -102.37350 33769 ft 419 kts 268°
2026-04-23 15:00 40.02808 -102.44926 33781 ft 420 kts 268°
2026-04-23 15:01 40.03292 -102.52525 33777 ft 421 kts 268°
2026-04-23 15:01 40.03776 -102.60085 33775 ft 420 kts 268°
2026-04-23 15:02 40.04265 -102.67632 33801 ft 419 kts 267°
2026-04-23 15:02 40.04760 -102.75214 33796 ft 419 kts 268°
2026-04-23 15:03 40.05260 -102.82773 33797 ft 420 kts 268°
2026-04-23 15:03 40.05766 -102.90354 33809 ft 421 kts 268°
2026-04-23 15:04 40.06278 -102.97944 33820 ft 421 kts 268°
2026-04-23 15:04 40.06795 -103.05559 33826 ft 422 kts 268°
2026-04-23 15:05 40.07317 -103.13168 33815 ft 423 kts 268°
2026-04-23 15:05 40.07740 -103.20785 33808 ft 421 kts 266°
2026-04-23 15:06 40.08111 -103.28427 33799 ft 421 kts 267°
2026-04-23 15:06 40.08503 -103.36057 33800 ft 423 kts 267°
2026-04-23 15:07 40.08906 -103.43735 33799 ft 424 kts 268°
2026-04-23 15:07 40.09315 -103.51408 33806 ft 424 kts 268°
2026-04-23 15:08 40.09732 -103.59061 33802 ft 425 kts 268°
2026-04-23 15:09 40.10360 -103.70604 33816 ft 429 kts 268°
2026-04-23 15:09 40.10798 -103.78414 33813 ft 429 kts 268°
2026-04-23 15:10 40.11160 -103.84864 33823 ft 430 kts 268°
2026-04-23 15:10 40.11669 -103.93889 33833 ft 429 kts 268°
2026-04-23 15:11 40.12117 -104.01625 33820 ft 429 kts 268°
2026-04-23 15:11 40.12564 -104.09391 33814 ft 429 kts 269°
2026-04-23 15:12 40.13024 -104.17179 33807 ft 430 kts 269°
2026-04-23 15:12 40.13480 -104.24993 33810 ft 431 kts 269°
2026-04-23 15:13 40.13854 -104.32742 33815 ft 431 kts 268°
2026-04-23 15:13 40.14163 -104.40520 33817 ft 429 kts 266°
2026-04-23 15:14 40.14033 -104.48296 33817 ft 427 kts 263°
2026-04-23 15:14 40.13778 -104.56045 33818 ft 427 kts 263°
2026-04-23 15:15 40.13508 -104.63768 33822 ft 428 kts 263°
2026-04-23 15:15 40.13239 -104.71569 33815 ft 427 kts 263°
2026-04-23 15:16 40.12981 -104.79264 33818 ft 425 kts 263°
2026-04-23 15:16 40.12725 -104.86929 33808 ft 426 kts 263°
2026-04-23 15:17 40.12476 -104.94687 33806 ft 428 kts 263°
2026-04-23 15:17 40.12226 -105.02439 33792 ft 427 kts 264°
2026-04-23 15:18 40.11982 -105.10190 33785 ft 428 kts 264°
2026-04-23 15:18 40.11741 -105.17982 33838 ft 431 kts 264°
2026-04-23 15:19 40.11513 -105.25749 33797 ft 429 kts 265°
2026-04-23 15:19 40.11284 -105.33584 33825 ft 431 kts 265°
2026-04-23 15:20 40.11098 -105.40043 33845 ft 430 kts 265°
2026-04-23 15:20 40.10842 -105.49167 33847 ft 432 kts 266°
2026-04-23 15:21 40.10620 -105.57034 33839 ft 434 kts 265°
2026-04-23 15:21 40.10247 -105.64863 33839 ft 434 kts 264°
2026-04-23 15:22 40.09886 -105.72734 33893 ft 436 kts 264°
2026-04-23 15:22 40.09535 -105.80660 33885 ft 438 kts 265°
2026-04-23 15:23 40.09190 -105.88640 33920 ft 439 kts 265°
2026-04-23 15:23 40.08853 -105.96622 33955 ft 441 kts 265°
2026-04-23 15:24 40.08523 -106.04558 33944 ft 441 kts 266°
2026-04-23 15:24 40.08190 -106.12582 33944 ft 442 kts 266°
2026-04-23 15:25 40.07866 -106.20533 33945 ft 441 kts 266°
2026-04-23 15:25 40.07605 -106.27199 33951 ft 442 kts 266°
2026-04-23 15:26 40.07240 -106.36527 33969 ft 441 kts 267°
2026-04-23 15:26 40.06930 -106.44537 33984 ft 441 kts 267°
2026-04-23 15:27 40.06625 -106.52533 34003 ft 442 kts 267°
2026-04-23 15:27 40.06332 -106.60524 33993 ft 441 kts 268°
2026-04-23 15:28 40.05984 -106.68507 33969 ft 441 kts 266°
2026-04-23 15:28 40.05523 -106.76469 33945 ft 441 kts 266°
2026-04-23 15:29 40.05085 -106.84418 33950 ft 441 kts 266°
2026-04-23 15:29 40.04666 -106.92401 33941 ft 441 kts 266°
2026-04-23 15:30 40.04251 -107.00381 33946 ft 440 kts 266°
2026-04-23 15:30 40.03842 -107.08295 33931 ft 441 kts 267°
2026-04-23 15:31 40.03434 -107.16305 33919 ft 441 kts 267°
2026-04-23 15:31 40.03033 -107.24242 33900 ft 441 kts 267°
2026-04-23 15:32 40.02636 -107.32254 33901 ft 442 kts 267°
2026-04-23 15:32 40.02248 -107.40211 33917 ft 442 kts 267°
2026-04-23 15:33 40.01862 -107.48186 33943 ft 442 kts 268°
2026-04-23 15:33 40.01481 -107.56220 33957 ft 443 kts 268°
2026-04-23 15:34 40.01105 -107.64214 33975 ft 444 kts 268°
2026-04-23 15:34 40.00735 -107.72246 33985 ft 445 kts 267°
2026-04-23 15:35 40.00234 -107.80276 33988 ft 445 kts 266°
2026-04-23 15:35 39.99706 -107.88287 33973 ft 445 kts 266°
2026-04-23 15:36 39.99198 -107.96310 33981 ft 444 kts 266°
2026-04-23 15:36 39.98701 -108.04308 33996 ft 444 kts 266°
2026-04-23 15:37 39.98212 -108.12323 33985 ft 444 kts 266°
2026-04-23 15:37 39.97805 -108.19018 33993 ft 444 kts 267°
2026-04-23 15:38 39.97245 -108.28344 33990 ft 444 kts 267°
2026-04-23 15:38 39.96770 -108.36322 33967 ft 444 kts 267°
2026-04-23 15:39 39.96302 -108.44334 33977 ft 444 kts 267°
2026-04-23 15:39 39.95835 -108.52365 33960 ft 445 kts 268°
2026-04-23 15:40 39.95375 -108.60384 33959 ft 443 kts 268°
2026-04-23 15:40 39.94920 -108.68396 33957 ft 442 kts 267°
2026-04-23 15:41 39.94480 -108.76321 33967 ft 441 kts 267°
2026-04-23 15:41 39.94013 -108.84273 33972 ft 441 kts 266°
2026-04-23 15:42 39.93477 -108.92267 33963 ft 442 kts 266°
2026-04-23 15:42 39.93016 -109.00201 33965 ft 442 kts 267°
2026-04-23 15:43 39.92255 -109.08132 33973 ft 443 kts 263°
2026-04-23 15:43 39.91189 -109.16011 33958 ft 443 kts 262°
2026-04-23 15:44 39.90105 -109.23923 33958 ft 442 kts 262°
2026-04-23 15:44 39.89026 -109.31798 33959 ft 441 kts 262°
2026-04-23 15:45 39.87951 -109.39655 33950 ft 440 kts 263°
2026-04-23 15:45 39.86893 -109.47437 33964 ft 438 kts 263°
2026-04-23 15:46 39.85832 -109.55258 33958 ft 438 kts 263°
2026-04-23 15:46 39.84786 -109.63036 33973 ft 437 kts 263°
2026-04-23 15:47 39.83739 -109.70822 33967 ft 437 kts 263°
2026-04-23 15:47 39.82706 -109.78589 33978 ft 437 kts 263°
2026-04-23 15:48 39.81676 -109.86342 33971 ft 435 kts 263°
2026-04-23 15:48 39.80653 -109.94098 33979 ft 435 kts 263°
2026-04-23 15:49 39.79635 -110.01838 33980 ft 434 kts 263°
2026-04-23 15:49 39.78624 -110.09539 33981 ft 433 kts 263°
2026-04-23 15:50 39.77480 -110.17163 33974 ft 433 kts 262°
2026-04-23 15:50 39.76333 -110.24841 33984 ft 433 kts 262°
2026-04-23 15:51 39.75199 -110.32537 33967 ft 433 kts 263°
2026-04-23 15:51 39.74085 -110.40155 33981 ft 431 kts 263°
2026-04-23 15:52 39.72974 -110.47788 33955 ft 431 kts 263°
2026-04-23 15:52 39.71865 -110.55438 33990 ft 430 kts 263°
2026-04-23 15:53 39.70764 -110.63054 34003 ft 430 kts 263°
2026-04-23 15:53 39.69661 -110.70692 34011 ft 429 kts 263°
2026-04-23 15:54 39.68578 -110.78291 34003 ft 430 kts 263°
2026-04-23 15:54 39.67491 -110.85923 34005 ft 428 kts 262°
2026-04-23 15:55 39.66415 -110.93504 34020 ft 427 kts 262°
2026-04-23 15:55 39.65349 -111.01041 34006 ft 426 kts 263°
2026-04-23 15:56 39.64283 -111.08600 33980 ft 427 kts 262°
2026-04-23 15:56 39.62976 -111.16105 33969 ft 429 kts 258°
2026-04-23 15:57 39.61245 -111.23513 33972 ft 429 kts 256°
2026-04-23 15:57 39.59444 -111.30860 33990 ft 429 kts 256°
2026-04-23 15:58 39.57632 -111.38208 34010 ft 428 kts 256°
2026-04-23 15:58 39.55823 -111.45551 34018 ft 427 kts 256°
2026-04-23 15:59 39.54021 -111.52895 34049 ft 427 kts 256°
2026-04-23 15:59 39.52230 -111.60200 34048 ft 428 kts 256°
2026-04-23 16:00 39.50448 -111.67491 34014 ft 427 kts 256°
2026-04-23 16:00 39.48661 -111.74818 34007 ft 426 kts 256°
2026-04-23 16:01 39.46883 -111.82130 34031 ft 425 kts 256°
2026-04-23 16:01 39.45127 -111.89379 34034 ft 425 kts 256°
2026-04-23 16:02 39.43357 -111.96685 34037 ft 424 kts 256°
2026-04-23 16:02 39.41608 -112.03938 34072 ft 423 kts 256°
2026-04-23 16:03 39.39864 -112.11186 34090 ft 423 kts 256°
2026-04-23 16:03 39.38114 -112.18471 34055 ft 425 kts 256°
2026-04-23 16:04 39.36363 -112.25761 34035 ft 425 kts 256°
2026-04-23 16:04 39.34545 -112.32958 34058 ft 424 kts 255°
2026-04-23 16:05 39.33030 -112.38997 34056 ft 424 kts 256°
2026-04-23 16:05 39.30940 -112.47447 34063 ft 424 kts 257°
2026-04-23 16:06 39.29430 -112.54768 34043 ft 424 kts 259°
2026-04-23 16:06 39.28052 -112.62121 34088 ft 422 kts 259°
2026-04-23 16:07 39.26666 -112.69443 34060 ft 421 kts 258°
2026-04-23 16:07 39.25277 -112.76767 34097 ft 419 kts 258°
2026-04-23 16:08 39.23899 -112.84064 34044 ft 421 kts 259°
2026-04-23 16:08 39.22517 -112.91399 34059 ft 421 kts 259°
2026-04-23 16:09 39.21146 -112.98693 34063 ft 421 kts 259°
2026-04-23 16:09 39.19773 -113.06007 34058 ft 421 kts 259°
2026-04-23 16:10 39.18405 -113.13349 34061 ft 421 kts 258°
2026-04-23 16:10 39.17044 -113.20648 34055 ft 420 kts 259°
2026-04-23 16:11 39.15693 -113.27930 34049 ft 420 kts 259°
2026-04-23 16:11 39.14339 -113.35252 34023 ft 420 kts 259°
2026-04-23 16:12 39.12992 -113.42570 34063 ft 418 kts 259°
2026-04-23 16:12 39.11654 -113.49847 34075 ft 419 kts 259°
2026-04-23 16:13 39.10326 -113.57108 34008 ft 419 kts 259°
2026-04-23 16:13 39.08203 -113.68026 34040 ft 419 kts 257°
2026-04-23 16:14 39.06744 -113.75234 34037 ft 419 kts 258°
2026-04-23 16:14 39.05296 -113.82485 34028 ft 418 kts 258°
2026-04-23 16:15 39.03864 -113.89677 34056 ft 416 kts 258°
2026-04-23 16:15 39.02430 -113.96909 34066 ft 416 kts 258°
2026-04-23 16:16 39.01014 -114.04070 34055 ft 415 kts 258°
2026-04-23 16:16 38.99600 -114.11237 34039 ft 416 kts 258°
2026-04-23 16:17 38.98188 -114.18420 34033 ft 415 kts 258°
2026-04-23 16:17 38.96778 -114.25613 34024 ft 416 kts 258°
2026-04-23 16:18 38.95374 -114.32804 34024 ft 415 kts 258°
2026-04-23 16:18 38.93972 -114.39992 34031 ft 416 kts 258°
2026-04-23 16:19 38.92581 -114.47163 34060 ft 415 kts 258°
2026-04-23 16:19 38.91189 -114.54346 34063 ft 415 kts 258°
2026-04-23 16:20 38.89810 -114.61498 34061 ft 415 kts 258°
2026-04-23 16:20 38.88359 -114.68693 34054 ft 415 kts 257°
2026-04-23 16:21 38.86845 -114.75782 34053 ft 413 kts 257°
2026-04-23 16:21 38.85344 -114.82916 34054 ft 413 kts 257°
2026-04-23 16:22 38.83862 -114.89989 34060 ft 413 kts 257°
2026-04-23 16:22 38.82379 -114.97107 34068 ft 413 kts 257°
2026-04-23 16:23 38.80893 -115.04240 34088 ft 414 kts 257°
2026-04-23 16:23 38.79414 -115.11369 34095 ft 415 kts 258°
2026-04-23 16:24 38.77943 -115.18483 34097 ft 415 kts 257°
2026-04-23 16:24 38.76475 -115.25592 34089 ft 415 kts 258°
2026-04-23 16:25 38.75006 -115.32731 34100 ft 414 kts 258°
2026-04-23 16:25 38.73547 -115.39849 34110 ft 415 kts 258°
2026-04-23 16:26 38.72096 -115.46950 34112 ft 414 kts 258°
2026-04-23 16:26 38.70639 -115.54092 34113 ft 413 kts 258°
2026-04-23 16:27 38.69199 -115.61171 34109 ft 412 kts 258°
2026-04-23 16:27 38.67759 -115.68257 34105 ft 413 kts 257°
2026-04-23 16:28 38.66185 -115.75352 34101 ft 413 kts 257°
2026-04-23 16:28 38.64623 -115.82385 34106 ft 413 kts 256°
2026-04-23 16:29 38.63076 -115.89417 34100 ft 413 kts 257°
2026-04-23 16:29 38.61529 -115.96485 34100 ft 412 kts 257°
2026-04-23 16:30 38.59992 -116.03525 34099 ft 411 kts 257°
2026-04-23 16:30 38.58468 -116.10523 34087 ft 411 kts 257°
2026-04-23 16:31 38.56942 -116.17555 34092 ft 411 kts 257°
2026-04-23 16:31 38.55426 -116.24546 34101 ft 412 kts 257°
2026-04-23 16:32 38.53898 -116.31611 34100 ft 412 kts 257°
2026-04-23 16:32 38.52385 -116.38635 34092 ft 412 kts 257°
2026-04-23 16:33 38.50870 -116.45681 34085 ft 413 kts 258°
2026-04-23 16:33 38.49358 -116.52738 34081 ft 413 kts 258°
2026-04-23 16:34 38.47858 -116.59764 34079 ft 411 kts 258°
2026-04-23 16:34 38.46357 -116.66804 34080 ft 411 kts 257°
2026-04-23 16:35 38.44821 -116.73840 34083 ft 413 kts 256°
2026-04-23 16:35 38.43225 -116.80813 34081 ft 413 kts 257°
2026-04-23 16:36 38.41643 -116.87811 34087 ft 412 kts 257°
2026-04-23 16:36 38.40062 -116.94849 34085 ft 412 kts 257°
2026-04-23 16:37 38.38494 -117.01829 34086 ft 412 kts 257°
2026-04-23 16:37 38.36922 -117.08852 34087 ft 411 kts 257°
2026-04-23 16:38 38.35366 -117.15828 34090 ft 411 kts 257°
2026-04-23 16:38 38.33813 -117.22802 34094 ft 411 kts 257°
2026-04-23 16:39 38.32565 -117.29861 34091 ft 410 kts 262°
2026-04-23 16:39 38.31582 -117.36981 34103 ft 409 kts 262°
2026-04-23 16:40 38.30589 -117.44113 34115 ft 409 kts 262°
2026-04-23 16:40 38.29594 -117.51180 34126 ft 408 kts 262°
2026-04-23 16:41 38.28599 -117.58267 34121 ft 408 kts 262°
2026-04-23 16:41 38.27600 -117.65392 34112 ft 408 kts 262°
2026-04-23 16:42 38.26620 -117.72430 34109 ft 407 kts 262°
2026-04-23 16:42 38.25631 -117.79529 34105 ft 408 kts 262°
2026-04-23 16:43 38.24655 -117.86597 34108 ft 407 kts 262°
2026-04-23 16:43 38.23677 -117.93677 34114 ft 407 kts 263°
2026-04-23 16:44 38.22708 -118.00740 34123 ft 406 kts 263°
2026-04-23 16:44 38.21750 -118.07770 34112 ft 406 kts 263°
2026-04-23 16:45 38.20787 -118.14864 34110 ft 407 kts 263°
2026-04-23 16:45 38.19826 -118.21948 34102 ft 406 kts 263°
2026-04-23 16:46 38.18899 -118.28822 34093 ft 405 kts 263°
2026-04-23 16:46 38.17953 -118.35880 34101 ft 405 kts 263°
2026-04-23 16:47 38.16965 -118.42876 34097 ft 404 kts 262°
2026-04-23 16:47 38.15931 -118.49883 34096 ft 405 kts 262°
2026-04-23 16:48 38.14913 -118.56912 34095 ft 404 kts 263°
2026-04-23 16:48 38.13903 -118.63934 34099 ft 405 kts 262°
2026-04-23 16:49 38.12896 -118.70957 34108 ft 405 kts 262°
2026-04-23 16:49 38.11882 -118.77942 34110 ft 405 kts 261°
2026-04-23 16:50 38.10812 -118.84933 34107 ft 404 kts 262°
2026-04-23 16:50 38.09756 -118.91943 34111 ft 404 kts 262°
2026-04-23 16:51 38.08710 -118.98945 34113 ft 403 kts 262°
2026-04-23 16:51 38.07832 -119.04840 34116 ft 404 kts 262°
2026-04-23 16:52 38.06779 -119.11907 34102 ft 404 kts 262°
2026-04-23 16:52 38.05743 -119.18895 34097 ft 404 kts 262°
2026-04-23 16:53 38.04720 -119.25857 34084 ft 403 kts 262°
2026-04-23 16:53 38.03692 -119.32846 34079 ft 402 kts 262°
2026-04-23 16:54 38.02676 -119.39799 34072 ft 402 kts 262°
2026-04-23 16:54 38.01666 -119.46725 34071 ft 402 kts 262°
2026-04-23 16:55 38.00653 -119.53703 34072 ft 403 kts 263°
2026-04-23 16:55 37.99650 -119.60660 34086 ft 403 kts 262°
2026-04-23 16:56 37.98641 -119.67647 34096 ft 404 kts 262°
2026-04-23 16:56 37.97615 -119.74608 34095 ft 404 kts 261°
2026-04-23 16:57 37.96493 -119.81549 34095 ft 403 kts 261°
2026-04-23 16:57 37.95385 -119.88504 34111 ft 404 kts 261°
2026-04-23 16:58 37.94840 -119.91969 33875 ft 405 kts 262°
2026-04-23 16:58 37.94292 -119.95458 33340 ft 404 kts 262°
2026-04-23 16:58 37.93741 -119.98978 32782 ft 405 kts 262°
2026-04-23 16:58 37.93194 -120.02467 32219 ft 407 kts 262°
2026-04-23 16:59 37.92649 -120.05965 31627 ft 410 kts 262°
2026-04-23 16:59 37.92091 -120.09528 31006 ft 414 kts 262°
2026-04-23 16:59 37.91538 -120.13081 30360 ft 417 kts 262°
2026-04-23 16:59 37.90981 -120.16663 29700 ft 421 kts 262°
2026-04-23 17:00 37.90418 -120.20301 29040 ft 425 kts 262°
2026-04-23 17:00 37.89849 -120.23977 28400 ft 429 kts 262°
2026-04-23 17:00 37.89279 -120.27651 28156 ft 417 kts 262°
2026-04-23 17:00 37.88731 -120.31181 28112 ft 407 kts 262°
2026-04-23 17:01 37.87650 -120.38047 27727 ft 394 kts 261°
2026-04-23 17:01 37.87067 -120.41388 27128 ft 390 kts 261°
2026-04-23 17:01 37.86491 -120.44700 26511 ft 386 kts 261°
2026-04-23 17:02 37.86112 -120.46893 26097 ft 384 kts 261°
2026-04-23 17:02 37.85361 -120.51293 25751 ft 382 kts 261°
2026-04-23 17:02 37.84806 -120.54565 25673 ft 385 kts 261°
2026-04-23 17:02 37.84245 -120.57875 25572 ft 387 kts 261°
2026-04-23 17:03 37.83678 -120.61227 25212 ft 389 kts 261°
2026-04-23 17:03 37.83114 -120.64556 24692 ft 387 kts 261°
2026-04-23 17:03 37.82556 -120.67863 24170 ft 385 kts 261°
2026-04-23 17:03 37.82001 -120.71153 23650 ft 383 kts 261°
2026-04-23 17:04 37.81448 -120.74442 23096 ft 383 kts 260°
2026-04-23 17:04 37.80895 -120.77724 22496 ft 383 kts 261°
2026-04-23 17:04 37.80347 -120.80983 21917 ft 380 kts 261°
2026-04-23 17:04 37.79810 -120.84195 21618 ft 371 kts 261°
2026-04-23 17:05 37.79275 -120.87369 21450 ft 366 kts 260°
2026-04-23 17:05 37.78729 -120.90491 20876 ft 363 kts 260°
2026-04-23 17:05 37.78186 -120.93549 20333 ft 358 kts 260°
2026-04-23 17:05 37.77649 -120.96616 19801 ft 354 kts 260°
2026-04-23 17:06 37.77130 -120.99590 19288 ft 349 kts 260°
2026-04-23 17:06 37.76617 -121.02557 18857 ft 344 kts 260°
2026-04-23 17:06 37.76105 -121.05509 18414 ft 341 kts 260°
2026-04-23 17:06 37.75603 -121.08388 17927 ft 338 kts 260°
2026-04-23 17:07 37.75097 -121.11276 17435 ft 335 kts 260°
2026-04-23 17:07 37.74600 -121.14110 16959 ft 334 kts 260°
2026-04-23 17:07 37.74098 -121.16968 16472 ft 333 kts 260°
2026-04-23 17:07 37.73599 -121.19828 15990 ft 331 kts 260°
2026-04-23 17:08 37.73104 -121.22658 15504 ft 329 kts 260°
2026-04-23 17:08 37.72616 -121.25456 15020 ft 326 kts 260°
2026-04-23 17:08 37.72137 -121.28212 14543 ft 324 kts 260°
2026-04-23 17:08 37.71655 -121.30984 14075 ft 321 kts 260°
2026-04-23 17:09 37.71111 -121.33692 13609 ft 320 kts 256°
2026-04-23 17:09 37.70407 -121.36352 13167 ft 320 kts 253°
2026-04-23 17:09 37.69664 -121.38995 12719 ft 317 kts 253°
2026-04-23 17:09 37.68942 -121.41580 12284 ft 314 kts 253°
2026-04-23 17:10 37.68229 -121.44164 11860 ft 311 kts 253°
2026-04-23 17:10 37.67527 -121.46726 11440 ft 307 kts 254°
2026-04-23 17:10 37.66835 -121.49261 11037 ft 302 kts 254°
2026-04-23 17:10 37.66164 -121.51730 10677 ft 296 kts 254°
2026-04-23 17:11 37.65499 -121.54172 10386 ft 288 kts 254°
2026-04-23 17:11 37.64861 -121.56512 10166 ft 283 kts 254°
2026-04-23 17:11 37.64224 -121.58859 10126 ft 280 kts 254°
2026-04-23 17:11 37.63594 -121.61182 10133 ft 282 kts 254°
2026-04-23 17:12 37.63179 -121.62711 10129 ft 274 kts 254°
2026-04-23 17:12 37.62378 -121.65653 9952 ft 262 kts 254°
2026-04-23 17:12 37.61804 -121.67836 9547 ft 259 kts 257°
2026-04-23 17:12 37.61432 -121.69997 9211 ft 252 kts 266°
2026-04-23 17:13 37.61275 -121.72162 8947 ft 242 kts 269°
2026-04-23 17:13 37.61158 -121.74241 8777 ft 233 kts 269°
2026-04-23 17:13 37.61040 -121.76253 8679 ft 229 kts 268°
2026-04-23 17:13 37.60912 -121.78356 8484 ft 253 kts 268°
2026-04-23 17:14 37.60767 -121.80623 8112 ft 264 kts 268°
2026-04-23 17:14 37.60678 -121.82983 7935 ft 273 kts 271°
2026-04-23 17:14 37.60681 -121.85377 7511 ft 277 kts 273°
2026-04-23 17:14 37.60709 -121.87817 7126 ft 276 kts 273°
2026-04-23 17:15 37.60730 -121.90241 7045 ft 277 kts 273°
2026-04-23 17:15 37.60750 -121.92663 7004 ft 276 kts 273°
2026-04-23 17:15 37.60764 -121.95089 6932 ft 276 kts 272°
2026-04-23 17:15 37.60717 -121.97507 6930 ft 276 kts 270°
2026-04-23 17:16 37.60641 -121.99915 6924 ft 277 kts 271°
2026-04-23 17:16 37.60646 -122.02338 6917 ft 276 kts 276°
2026-04-23 17:16 37.60846 -122.04753 6889 ft 277 kts 280°
2026-04-23 17:16 37.61174 -122.07114 6822 ft 274 kts 290°
2026-04-23 17:17 37.62067 -122.09209 6781 ft 272 kts 309°
2026-04-23 17:17 37.63274 -122.11044 6719 ft 270 kts 311°
2026-04-23 17:17 37.64076 -122.12280 6552 ft 271 kts 311°
2026-04-23 17:17 37.65655 -122.14683 6379 ft 263 kts 312°
2026-04-23 17:18 37.67583 -122.18181 6223 ft 230 kts 285°
2026-04-23 17:18 37.67526 -122.20155 6164 ft 228 kts 252°
2026-04-23 17:18 37.66635 -122.21742 6150 ft 219 kts 217°
2026-04-23 17:19 37.65248 -122.22431 5881 ft 215 kts 183°
2026-04-23 17:19 37.63847 -122.22030 5516 ft 208 kts 146°
2026-04-23 17:19 37.62754 -122.20882 5156 ft 202 kts 132°
2026-04-23 17:19 37.61792 -122.19591 4780 ft 200 kts 130°
2026-04-23 17:20 37.60874 -122.18316 4420 ft 198 kts 129°
2026-04-23 17:20 37.59043 -122.15778 3677 ft 190 kts 130°
2026-04-23 17:21 37.58185 -122.13029 2986 ft 169 kts 66°
2026-04-23 17:21 37.58916 -122.11951 2687 ft 165 kts 23°
2026-04-23 17:21 37.61156 -122.11941 2091 ft 166 kts 358°
2026-04-23 17:22 37.62310 -122.11864 2007 ft 166 kts
2026-04-23 17:22 37.64382 -122.12922 1762 ft 173 kts 316°
2026-04-23 17:23 37.65949 -122.15155 1336 ft 166 kts 312°
2026-04-23 17:23 37.66680 -122.16232 1052 ft 158 kts 311°
2026-04-23 17:23 37.68037 -122.18246 706 ft 148 kts 311°
2026-04-23 17:24 37.68695 -122.19237 523 ft 147 kts 310°
2026-04-23 17:24 37.69354 -122.20233 316 ft 151 kts 310°
2026-04-23 17:24 37.70699 -122.22244 18 ft 135 kts 310°
2026-04-23 17:25 37.71390 -122.23132 16 ft 18 kts 348°
2026-04-23 17:25 37.71474 -122.23141 16 ft 8 kts 17°
2026-04-23 17:26 37.71463 -122.23025 16 ft 19 kts 133°
2026-04-23 17:26 37.71211 -122.22646 16 ft 30 kts 129°
2026-04-23 17:27 37.71201 -122.22337 17 ft 20 kts 37°
2026-04-23 17:27 37.71311 -122.22215 17 ft 21 kts 43°
2026-04-23 17:27 37.71417 -122.22070 17 ft 23 kts 49°
2026-04-23 17:27 37.71526 -122.21913 17 ft 24 kts 49°
2026-04-23 17:28 37.71636 -122.21751 17 ft 21 kts 48°
2026-04-23 17:28 37.71713 -122.21679 17 ft 11 kts
2026-04-23 17:28 37.71773 -122.21736 17 ft 11 kts 301°
2026-04-23 17:28 37.71809 -122.21811 16 ft 6 kts 307°
2026-04-23 17:29 37.71838 -122.21855 16 ft 6 kts 309°
2026-04-23 17:29 37.71843 -122.21863 16 ft 0 kts 310°